Regional Weather Roundup
Issued by NWS

Home | Current Version | Previous Version | Text Only | Print | Product List | Glossary On
Versions: 1 2 3 4 5 6 7 8 9 10 11 12 13 14 15 16 17 18 19 20 21 22 23 24 25 26 27 28 29 30 31 32 33 34 35 36 37 38 39 40 41 42 43 44 45 46 47 48 49 50
000
ASUS44 KFWD 231615
RWRTX
NORTH TEXAS HOURLY WEATHER ROUNDUP
NATIONAL WEATHER SERVICE FORT WORTH TX
1100 AM CDT SUN APR 23 2017

NOTE: "FAIR" INDICATES FEW OR NO CLOUDS BELOW 12,000 FEET WITH NO
SIGNIFICANT WEATHER AND/OR OBSTRUCTIONS TO VISIBILITY.

TXZ118-119-231700-
DALLAS/FORT WORTH METROPLEX

CITY           SKY/WX    TMP DP  RH WIND       PRES   REMARKS
DFW AIRPORT    SUNNY     65  45  48 NW9       30.16S
DALLAS LOVE    SUNNY     64  45  49 N9        30.16F
FTW MEACHAM    SUNNY     64  47  53 NW9       30.17F
DAL-EXECUTIVE  SUNNY     64  44  48 N10       30.16S
FTW-ALLIANCE   SUNNY     65  43  44 N10       30.17F
FTW-NAS-JRB    SUNNY     62  44  51 NW8       30.19S
FTW-SPINKS     SUNNY     63  41  45 N6        30.20S
ARLINGTON      SUNNY     63  44  50 NW9       30.17F
GRAND PRAIRIE  SUNNY     63  43  48 NW7       30.18F
ADDISON        SUNNY     63  45  51 N9        30.17F
MESQUITE       SUNNY     63  43  48 NW13G18   30.16F
LANCASTER      SUNNY     62  45  54 NW3       30.17F
$$

TXZ091>094-102>105-117-120-121-131>134-231700-
NORTH CENTRAL TEXAS

CITY           SKY/WX    TMP DP  RH WIND       PRES   REMARKS
SHRMAN/DENISON SUNNY     61  43  51 N8G16     30.17S
GAINESVILLE    SUNNY     61  43  51 N9        30.19S
BOWIE          SUNNY     62  43  50 N8        30.19F
BRIDGEPORT     SUNNY     61  42  50 NW5       30.22S
DECATUR        SUNNY     62  40  45 N5        30.19S
DENTON         SUNNY     63  46  54 NW7       30.17F
MCKINNEY       SUNNY     63  47  55 N13       30.16S
BONHAM         SUNNY     61  45  55 NW7       30.15F
GREENVILLE     SUNNY     64  45  48 N12G17    30.15F
ROCKWALL       SUNNY     61  45  54 N8        30.16S
TERRELL        SUNNY     64  42  44 N8        30.15F
WAXAHACHIE     SUNNY     62  45  53 N9        30.18S
CLEBURNE       SUNNY     63  45  51 N10       30.20S
GRANBURY       SUNNY     63  44  50 NW3       30.21S
$$

TXZ083>090-098>101-113>116-127>130-139>142-154-155-231700-
WESTERN NORTH TEXAS

CITY           SKY/WX    TMP DP  RH WIND       PRES   REMARKS
WICHITA FALLS  SUNNY     64  39  39 N8        30.21S
WF-KICKAPOO    SUNNY     62  36  37 N8        30.23S
VERNON         SUNNY     63  30  28 N10       30.23F
ABILENE        SUNNY     61  36  39 N12G18    30.24F
ABILENE-DYESS  SUNNY     62  36  37 NE12      30.23F
GRAHAM         SUNNY     64  39  40 N9        30.20S
BRECKENRIDGE   SUNNY     65  36  34 N6        30.22S HAZE
CISCO          SUNNY     61  37  41 N12       30.23S
RANGER         SUNNY     61  40  45 N13       30.22S
MINERAL WELLS  SUNNY     64  38  38 N15       30.19S
STEPHENVILLE   SUNNY     62  40  44 N7        30.23S
COMANCHE       SUNNY     62  40  45 N10G16    30.23S
BROWNWOOD      SUNNY     63  36  36 N12G18    30.23S
COLEMAN        SUNNY     64  36  35 N9G16     30.24S
$$

TXZ143>147-156>162-174-175-231700-
CENTRAL TEXAS

CITY           SKY/WX    TMP DP  RH WIND       PRES   REMARKS
WACO           SUNNY     64  46  52 N12       30.19R
WACO-MCGREGOR  SUNNY     64  44  48 N8        30.19S HAZE
HILLSBORO      SUNNY     62  45  54 N8        30.18S
CORSICANA      SUNNY     64  45  49 N9        30.17S
MEXIA          SUNNY     62  42  47 N10G17    30.16S
HEARNE         SUNNY     63  44  50 N21G26    30.17S
CAMERON        SUNNY     64  44  49 N14G21    30.17S
TEMPLE         SUNNY     63  45  51 N14G20    30.19S
KILLEEN        SUNNY     63  41  45 N14       30.18S
KILLEEN-SKYLRK SUNNY     63  43  48 N15       30.19S
FORT HOOD      SUNNY     62  42  47 N12       30.16S
GATESVILLE     SUNNY     63  41  45 N9        30.21F
HAMILTON       SUNNY     63  40  43 N12G17    30.21S
LAMPASAS       SUNNY     62  42  48 N10G17    30.19S
$$

TXZ095>097-106>112-122>126-135>138-148>153-164>167-231700-
EAST TEXAS

CITY           SKY/WX    TMP DP  RH WIND       PRES   REMARKS
PARIS          SUNNY     61  43  51 N13       30.13S
SULPHUR SPRNGS SUNNY     62  46  56 N10G18    30.15F
MOUNT PLEASANT SUNNY     62  44  51 N9        30.13S
GILMER         SUNNY     60  44  56 NW10      30.11S THUNDER
MINEOLA        SUNNY     63  45  51 N12       30.13F
TYLER          SUNNY     62  43  49 N15       30.12S
LONGVIEW       MOSUNNY   62  46  55 N10       30.10S
MARSHALL       SUNNY     60  43  53 NE8       30.11S
ATHENS         MOSUNNY   61  41  48 N14G20    30.13S
PALESTINE      SUNNY     61  47  58 N13G18    30.15F
JACKSONVILLE   SUNNY     59  44  58 N8G16     30.13F
HENDERSON      MOSUNNY   61  44  54 N7G17     30.12S
CENTER         PTSUNNY   61  48  63 N12       30.10S
NACOGDOCHES    PTSUNNY   59  46  63 N18G24    30.09F
LUFKIN         PTSUNNY   59  46  62 NW10G17   30.10S
$$

SUPPLEMENTAL OBSERVATIONS (CENTRAL)

CITY           SKY/WX    TMP DP  RH WIND       PRES   REMARKS
DENISON DAM      N/A     61  43  51 N12         N/A
PAT MAYSE LAKE   N/A     61  43  51 NW8         N/A
GREENVILLE       N/A     63  43  48 N9G17       N/A
CEDAR HILL       N/A     64  45  48 N3          N/A
ATHENS           N/A     64  43  45 N3G12       N/A
LAKE LIMESTONE   N/A     63  43  48 NE15G23     N/A
MCGREGOR         N/A     64  43  45 N8G16       N/A
TEMPLE           N/A     64  43  45 N7G17       N/A
$$

SUPPLEMENTAL OBSERVATIONS (WEST)

CITY           SKY/WX    TMP DP  RH WIND       PRES   REMARKS
MILLERS CREEK    N/A     64  37  36 N8G16       N/A
POSSUM KINGDOM   N/A     64  39  39 N9          N/A
GRANBURY         N/A     63  43  48 N8          N/A
COMANCHE         N/A     63  37  39 N14         N/A
HAMBY            N/A     63  34  34 N8          N/A
IVIE RESERVOIR   N/A     63  34  34 N7          N/A
COLORADO BEND    N/A     64  41  42 NE7         N/A
$$

SUPPLEMENTAL OBSERVATIONS (EAST)

CITY           SKY/WX    TMP DP  RH WIND       PRES   REMARKS
CLARKSVILLE      N/A     63  41  45 N9          N/A
TEXARKANA        N/A     63  45  51 VRB8        N/A
LINDEN           N/A     64  43  45 N3G14       N/A
GILMER           N/A     63  43  48 VRB8        N/A
HENDERSON        N/A     63  45  51 N12         N/A
LUFKIN           N/A     61  45  55 MISG        N/A
N SABINE NF      N/A     59  46  63 MISG        N/A
S SABINE NF      N/A     59  46  63 N3G13       N/A
$$

SUPPLEMENTAL OBSERVATIONS ARE A COLLECTION OF AUTOMATED INSTRUMENTS
THAT ARE MAINTAINED BY A VARIETY OF FEDERAL AND STATE AGENCIES.
CERTAIN ELEMENTS...SUCH AS HUMIDITY VALUES AND SUSTAINED WIND
SPEEDS...MAY BE APPROXIMATED.




USA.gov is the U.S. government's official web portal to all federal, state and local government web resources and services.